HS9UAC-10 Weather Reports


time (UTC)temp
C
wind
direction
speed
KPH
gust
KPH
rain 1hr
cm
rain 24hr
cm
rain mn
cm
humidity
%
barometer
mb
20260503005524 33 0 0.0 0.0 0.00 0.00 0.00 75 1008.0
20260503003959 33 0 0.0 0.0 0.00 0.00 0.00 77 1008.0
20260503002435 33 0 0.0 0.0 0.00 0.00 0.00 81 1008.0
20260503000909 32 0 0.0 0.0 0.00 0.00 0.00 84 1008.0
20260503000812 32 0 0.0 0.0 0.00 0.00 0.00 85 1008.0
20260502235710 32 0 0.0 0.0 0.00 0.00 0.00 86 1008.0
20260502234145 31 0 0.0 0.0 0.00 0.00 0.00 88 1007.0
20260502232620 31 0 0.0 0.0 0.00 0.00 0.00 89 1007.0
20260502231056 31 0 0.0 0.0 0.00 0.00 0.00 89 1007.0
20260502225531 31 0 0.0 0.0 0.00 0.00 0.00 89 1007.0
20260502224007 31 0 0.0 0.0 0.00 0.00 0.00 88 1007.0
20260502222442 31 0 0.0 0.0 0.00 0.00 0.00 88 1007.0
20260502220918 31 0 0.0 0.0 0.00 0.00 0.00 88 1006.0
20260502215353 32 0 0.0 0.0 0.00 0.00 0.00 86 1006.0
20260502213828 32 0 0.0 0.0 0.00 0.00 0.00 84 1006.0
20260502212305 32 0 0.0 0.0 0.00 0.00 0.00 84 1006.0
20260502210739 32 0 0.0 0.0 0.00 0.00 0.00 83 1006.0
20260502205214 32 0 0.0 0.0 0.00 0.00 0.00 81 1006.0
20260502203650 32 0 0.0 0.0 0.00 0.00 0.00 79 1006.0
20260502202125 32 0 0.0 0.0 0.00 0.00 0.00 78 1006.0
20260502200601 33 0 0.0 0.0 0.00 0.00 0.00 77 1006.0
20260502195036 33 0 0.0 0.0 0.00 0.00 0.00 76 1006.0
20260502193512 33 0 0.0 0.0 0.00 0.00 0.00 74 1006.0
20260502191947 33 0 0.0 0.0 0.00 0.00 0.00 72 1006.0
20260502190422 33 0 0.0 0.0 0.00 0.00 0.00 72 1007.0
20260502184830 33 0 0.0 0.0 0.00 0.00 0.00 71 1007.0
20260502183306 33 0 0.0 0.0 0.00 0.00 0.00 69 1007.0
20260502181741 33 0 0.0 0.0 0.00 0.00 0.00 69 1007.0
20260502180217 33 0 0.0 0.0 0.00 0.00 0.00 71 1007.0
20260502162949 35 0 0.0 0.0 0.00 0.00 0.00 63 1008.0
20260502161425 35 0 0.0 0.0 0.00 0.00 0.00 61 1008.0
20260502151246 36 0 0.0 0.0 0.00 0.00 0.00 62 1008.0
20260502122315 37 0 0.0 0.0 0.00 0.00 0.00 63 1006.0
20260502120750 36 0 0.0 0.0 0.00 0.00 0.00 66 1006.0
20260502115226 35 0 0.0 0.0 0.00 0.00 0.00 68 1006.0
20260502113701 35 0 0.0 0.0 0.00 0.00 0.00 70 1005.0
20260502112137 36 0 0.0 0.0 0.00 0.00 0.00 65 1005.0
20260502110612 36 0 0.0 0.0 0.00 0.00 0.00 64 1005.0
20260502105047 37 0 0.0 0.0 0.00 0.00 0.00 62 1005.0
20260502103523 37 0 0.0 0.0 0.00 0.00 0.00 62 1005.0
20260502101958 36 0 0.0 0.0 0.00 0.00 0.00 65 1005.0
20260502100434 38 0 0.0 0.0 0.00 0.00 0.00 53 1005.0
20260502090255 45 0 0.0 0.0 0.00 0.00 0.00 37 1004.0
20260502071503 37 0 0.0 0.0 0.00 0.00 0.00 55 1006.0
20260502065939 37 0 0.0 0.0 0.00 0.00 0.00 54 1006.0
20260502064414 38 0 0.0 0.0 0.00 0.00 0.00 51 1006.0
20260502062849 39 0 0.0 0.0 0.00 0.00 0.00 47 1006.0
20260502061325 38 0 0.0 0.0 0.00 0.00 0.00 54 1007.0
20260502055800 38 0 0.0 0.0 0.00 0.00 0.00 55 1007.0
20260502054236 38 0 0.0 0.0 0.00 0.00 0.00 54 1007.0
20260502052711 38 0 0.0 0.0 0.00 0.00 0.00 51 1007.0
20260502051146 38 0 0.0 0.0 0.00 0.00 0.00 50 1007.0
20260502045621 37 0 0.0 0.0 0.00 0.00 0.00 53 1008.0
20260502044057 38 0 0.0 0.0 0.00 0.00 0.00 51 1008.0
20260502042532 37 0 0.0 0.0 0.00 0.00 0.00 53 1008.0
20260502041008 37 0 0.0 0.0 0.00 0.00 0.00 54 1009.0
20260502035443 37 0 0.0 0.0 0.00 0.00 0.00 59 1009.0
20260502033919 37 0 0.0 0.0 0.00 0.00 0.00 57 1009.0
20260502032354 36 0 0.0 0.0 0.00 0.00 0.00 63 1009.0
20260502030830 37 0 0.0 0.0 0.00 0.00 0.00 60 1009.0
20260502025306 37 0 0.0 0.0 0.00 0.00 0.00 60 1009.0
20260502023741 36 0 0.0 0.0 0.00 0.00 0.00 63 1009.0
20260502022216 36 0 0.0 0.0 0.00 0.00 0.00 62 1009.0
20260502020651 36 0 0.0 0.0 0.00 0.00 0.00 67 1009.0
20260502015127 35 0 0.0 0.0 0.00 0.00 0.00 68 1009.0
20260502013602 35 0 0.0 0.0 0.00 0.00 0.00 73 1009.0
20260502012038 35 0 0.0 0.0 0.00 0.00 0.00 75 1008.0
20260502010513 34 0 0.0 0.0 0.00 0.00 0.00 79 1008.0